This demonstration page uses our WeatherBlox Daily Observations layout. Learn more.

Left ArrowRight Arrow

39.51506, -84.39828

Hourly Observations for August 18, 2016

Temp ( °F °C ) Dew Point ( °F °C ) Humidity (%) Winds ( mph kmh ) Pressure ( in mb ) Visibility ( mi km ) Precip ( " mm )
12:15 am 00:15 Clear 74 23.6 69 20.6 83 83 S 3 6 30.09 1019 10 16 N/A
12:35 am 00:35 Clear 72 22.3 67 19.5 84 84 SSW 5 7 30.09 1019 7 11 N/A
12:55 am 00:55 Clear 72 22.3 67 19.6 85 85 N N/A 30.09 1019 7 11 N/A
1:15 am 01:15 Clear 71 21.8 66 19.1 85 85 N N/A 30.12 1020 7 11 N/A
1:35 am 01:35 Hazy 70 21.2 65 18.6 85 85 N N/A 30.12 1020 5 8 N/A
1:55 am 01:55 Hazy 70 20.9 65 18.2 85 85 N N/A 30.09 1019 5 8 N/A
2:15 am 02:15 Hazy 69 20.8 65 18.1 85 85 SSW 3 6 30.09 1019 4 6 N/A
2:35 am 02:35 Hazy 69 20.8 65 18.2 85 85 SSW 5 7 30.09 1019 4 6 N/A
2:55 am 02:55 Clear 72 22.2 67 19.7 86 86 SSW 3 6 30.09 1019 7 11 N/A
3:15 am 03:15 Hazy 71 21.5 66 19 86 86 N N/A 30.09 1019 5 8 N/A
3:35 am 03:35 Clear 72 22.1 67 19.5 85 85 N N/A 30.09 1019 7 11 N/A
3:55 am 03:55 Clear 69 20.8 65 18.1 85 85 N N/A 30.09 1019 7 11 N/A
4:15 am 04:15 Hazy 69 20.8 65 18.2 85 85 SSW 6 9 30.09 1019 5 8 N/A
4:35 am 04:35 Hazy 70 21 65 18.5 86 86 SSW 3 6 30.09 1019 5 8 N/A
4:55 am 04:55 Hazy 69 20.8 65 18.2 85 85 N N/A 30.09 1019 5 8 N/A
5:15 am 05:15 Hazy 69 20.8 65 18.2 85 85 N N/A 30.12 1020 5 8 N/A
5:35 am 05:35 Mostly Cloudy with Haze 69 20.8 65 18.3 86 86 N N/A 30.12 1020 1 1 N/A
5:55 am 05:55 Mostly Cloudy with Haze 69 20.8 65 18.3 86 86 N N/A 30.12 1020 2 2 N/A
6:15 am 06:15 Mostly Cloudy with Haze 69 20.8 65 18.4 86 86 N N/A 30.12 1020 1 1 N/A
6:35 am 06:35 Hazy 69 20.8 65 18.5 87 87 N N/A 30.12 1020 1 2 N/A
6:55 am 06:55 Mostly Cloudy with Haze 69 20.8 65 18.3 86 86 N N/A 30.12 1020 2 2 N/A
7:15 am 07:15 Cloudy with Haze 69 20.8 65 18.3 86 86 N N/A 30.12 1020 2 3 N/A
7:35 am 07:35 Cloudy with Haze 69 20.8 65 18.5 87 87 N N/A 30.12 1020 3 5 N/A
7:55 am 07:55 Cloudy with Haze 69 20.8 65 18.5 87 87 N N/A 30.12 1020 1 1 N/A
8:15 am 08:15 Cloudy with Mist and Fog 71 21.5 67 19.2 87 87 N N/A 30.12 1020 4 6 N/A
8:35 am 08:35 Cloudy with Mist and Fog 71 21.8 67 19.5 87 87 N N/A 30.12 1020 4 6 N/A
8:55 am 08:55 Cloudy with Mist and Fog 72 22.3 68 20 87 87 N N/A 30.12 1020 3 4 N/A
9:15 am 09:15 Cloudy with Mist and Fog 74 23.4 70 20.9 86 86 N N/A 30.12 1020 3 4 N/A
9:35 am 09:35 Cloudy with Haze 74 23.6 70 21.1 86 86 N N/A 30.12 1020 3 4 N/A
9:55 am 09:55 Cloudy with Haze 74 23.6 70 21.1 86 86 N N/A 30.12 1020 3 5 N/A
10:15 am 10:15 Cloudy with Haze 74 23.6 70 21 85 85 N N/A 30.12 1020 5 8 N/A
10:35 am 10:35 Cloudy with Haze 74 23.6 69 20.6 83 83 N N/A 30.12 1020 5 8 N/A
10:55 am 10:55 Cloudy with Haze 74 23.6 69 20.4 82 82 SSW 5 7 30.12 1020 5 8 N/A
11:15 am 11:15 Cloudy 74 23.6 68 20.2 81 81 SW 3 6 30.12 1020 7 11 N/A
11:35 am 11:35 Cloudy 77 25.1 70 21.3 80 80 SSW 5 7 30.12 1020 7 11 N/A
11:55 am 11:55 Cloudy 77 25.1 70 21 78 78 WSW 7 11 30.12 1020 7 11 N/A
12:15 pm 12:15 Mostly Cloudy 77 25.1 69 20.7 77 77 WSW 5 7 30.12 1020 10 16 N/A
12:35 pm 12:35 Partly Cloudy 80 26.5 70 21.1 72 72 W 3 6 30.12 1020 10 16 N/A
12:55 pm 12:55 Sunny 80 26.5 68 20.1 68 68 WNW 5 7 30.12 1020 10 16 N/A
1:15 pm 13:15 Partly Cloudy 81 27.2 69 20.8 68 68 W 5 7 30.09 1019 10 16 N/A
1:35 pm 13:35 Partly Cloudy 81 27.3 68 20.1 65 65 SW 6 9 30.09 1019 10 16 N/A
1:55 pm 13:55 Sunny 82 28 67 19.4 60 60 SW 6 9 30.09 1019 10 16 N/A
2:15 pm 14:15 Sunny 82 28 66 18.7 57 57 SSW 5 7 30.09 1019 10 16 N/A
2:35 pm 14:35 Partly Cloudy 83 28.6 66 19 56 56 SSW 6 9 30.06 1018 10 16 N/A
2:55 pm 14:55 Partly Cloudy 83 28.5 67 19.4 58 58 SW 6 9 30.06 1018 10 16 N/A
3:15 pm 15:15 Partly Cloudy 85 29.2 66 18.7 53 53 WSW 5 7 30.03 1017 10 16 N/A
3:35 pm 15:35 Sunny 85 29.2 65 18.4 52 52 W 3 6 30.03 1017 10 16 N/A
3:55 pm 15:55 Partly Cloudy 85 29.3 64 17.8 50 50 N N/A 30.03 1017 10 16 N/A
4:15 pm 16:15 Partly Cloudy 83 28.6 63 17.3 50 50 N N/A 30.00 1016 10 16 N/A
4:35 pm 16:35 Partly Cloudy 84 28.7 63 17.1 49 49 N N/A 30.00 1016 10 16 N/A
4:55 pm 16:55 Partly Cloudy 85 29.2 64 17.6 50 50 S 5 7 29.97 1015 10 16 N/A
5:15 pm 17:15 Partly Cloudy 89 31.7 66 19 47 47 SW 5 7 29.97 1015 10 16 N/A
5:35 pm 17:35 Sunny 87 30.7 65 18.2 47 47 W 6 9 30.00 1016 10 16 N/A
5:55 pm 17:55 Sunny 85 29.3 63 17 47 47 W 6 9 30.00 1016 10 16 N/A
6:15 pm 18:15 Mostly Cloudy 86 30.1 65 18.1 49 49 WSW 5 7 30.00 1016 10 16 N/A
6:35 pm 18:35 Mostly Cloudy 88 31.1 65 18.3 46 46 W 5 7 29.97 1015 10 16 N/A
6:55 pm 18:55 Partly Cloudy 84 29.1 64 17.7 50 50 NW 6 9 29.97 1015 10 16 N/A
7:15 pm 19:15 Sunny 83 28.6 64 17.8 52 52 WNW 5 7 29.97 1015 10 16 N/A
7:35 pm 19:35 Sunny 82 28 65 18.6 57 57 N N/A 30.00 1016 10 16 N/A
7:55 pm 19:55 Sunny 81 27.2 68 20.1 65 65 N N/A 30.00 1016 10 16 N/A
8:15 pm 20:15 Sunny 80 26.5 71 21.5 74 74 N N/A 30.00 1016 10 16 N/A
8:35 pm 20:35 Clear 77 25.1 69 20.5 76 76 N N/A 30.00 1016 10 16 N/A
8:55 pm 20:55 Clear 74 23.6 68 20.1 81 81 N N/A 30.00 1016 7 11 N/A
9:15 pm 21:15 Clear 74 23.6 68 20.2 81 81 N N/A 30.00 1016 7 11 N/A
9:35 pm 21:35 Partly Cloudy 75 24 68 20.2 79 79 N N/A 30.00 1016 10 16 N/A
9:55 pm 21:55 Mostly Cloudy 74 23.6 69 20.5 83 83 N N/A 30.00 1016 7 11 N/A
10:15 pm 22:15 Mostly Cloudy 74 23.6 69 20.5 83 83 N N/A 30.00 1016 7 11 N/A
10:35 pm 22:35 Mostly Cloudy 74 23.6 69 20.3 82 82 N N/A 30.00 1016 7 11 N/A
10:55 pm 22:55 Mostly Cloudy 74 23.6 68 20.2 81 81 N N/A 30.03 1017 7 11 N/A
11:15 pm 23:15 Mostly Cloudy 74 23.6 69 20.5 83 83 N N/A 30.03 1017 7 11 N/A
11:35 pm 23:35 Partly Cloudy 74 23.6 69 20.3 82 82 N N/A 30.03 1017 7 11 N/A
11:55 pm 23:55 Hazy 74 23.6 69 20.5 83 83 N N/A 30.03 1017 5 8 N/A

Powered by AerisWeather